HEBOWX Weather Reports


Display with metric or nautical units.
time (UTC)temp
F
wind
direction
speed
MPH
gust
MPH
rain 1hr
in
rain 24hr
in
rain mn
in
humidity
%
barometer
mb
20260508085037 47 267 4.0 9.0 0.00 0.00 0.00 8 1013.6
20260508084536 47 252 5.0 9.0 0.00 0.00 0.00 9 1013.6
20260508084036 47 246 7.0 8.0 0.00 0.00 0.00 8 1013.8
20260508083536 47 253 5.0 8.0 0.00 0.00 0.00 8 1013.5
20260508083036 47 257 5.0 7.0 0.00 0.00 0.00 8 1013.4
20260508082536 47 250 4.0 7.0 0.00 0.00 0.00 8 1013.6
20260508082036 47 249 5.0 9.0 0.00 0.00 0.00 8 1013.6
20260508081536 47 253 5.0 9.0 0.00 0.00 0.00 8 1013.5
20260508081036 47 259 6.0 9.0 0.00 0.00 0.00 7 1013.6
20260508080536 47 254 6.0 9.0 0.00 0.00 0.00 7 1013.6
20260508080036 47 257 5.0 9.0 0.00 0.00 0.00 8 1013.8
20260508075536 47 254 5.0 9.0 0.00 0.00 0.00 8 1013.7
20260508075036 47 256 5.0 9.0 0.00 0.00 0.00 8 1013.7
20260508074536 48 249 6.0 9.0 0.00 0.00 0.00 8 1013.6
20260508074036 48 249 4.0 9.0 0.00 0.00 0.00 9 1013.6
20260508073536 48 263 6.0 9.0 0.00 0.00 0.00 9 1013.5
20260508073036 48 246 6.0 8.0 0.00 0.00 0.00 8 1013.6
20260508072536 48 247 6.0 8.0 0.00 0.00 0.00 8 1013.6
20260508072037 48 268 6.0 8.0 0.00 0.00 0.00 7 1013.6
20260508071536 48 257 6.0 8.0 0.00 0.00 0.00 7 1013.6
20260508071036 48 242 6.0 8.0 0.00 0.00 0.00 7 1014.0
20260508070536 48 247 5.0 6.0 0.00 0.00 0.00 7 1013.7
20260508070036 49 249 4.0 7.0 0.00 0.00 0.00 7 1014.1
20260508065536 49 252 5.0 7.0 0.00 0.00 0.00 7 1013.8
20260508065036 49 253 5.0 7.0 0.00 0.00 0.00 7 1013.6
20260508064536 49 254 2.0 7.0 0.00 0.00 0.00 7 1013.7
20260508064036 49 250 2.0 7.0 0.00 0.00 0.00 7 1013.6
20260508063537 50 249 3.0 7.0 0.00 0.00 0.00 7 1013.7
20260508063036 50 254 3.0 6.0 0.00 0.00 0.00 7 1013.8
20260508062538 49 250 3.0 6.0 0.00 0.00 0.00 7 1014.1
20260508062035 50 254 3.0 6.0 0.00 0.00 0.00 7 1013.7
20260508061535 50 254 3.0 7.0 0.00 0.00 0.00 7 1013.8
20260508061036 49 239 3.0 7.0 0.00 0.00 0.00 6 1013.8
20260508060536 50 250 2.0 7.0 0.00 0.00 0.00 7 1013.7
20260508060035 50 249 2.0 7.0 0.00 0.00 0.00 7 1014.2
20260508055536 49 257 3.0 7.0 0.00 0.00 0.00 8 1014.2
20260508055036 49 242 2.0 6.0 0.00 0.00 0.00 8 1014.1
20260508054535 49 245 2.0 6.0 0.00 0.00 0.00 8 1013.8
20260508054035 49 243 3.0 6.0 0.00 0.00 0.00 9 1014.0
20260508053535 49 250 3.0 6.0 0.00 0.00 0.00 12 1013.8
20260508053035 49 256 3.0 6.0 0.00 0.00 0.00 11 1013.8
20260508052536 49 257 3.0 6.0 0.00 0.00 0.00 11 1014.1
20260508052035 49 245 3.0 6.0 0.00 0.00 0.00 11 1013.8
20260508051535 49 260 4.0 7.0 0.00 0.00 0.00 12 1014.0
20260508051036 49 249 4.0 7.0 0.00 0.00 0.00 13 1014.2
20260508050535 49 253 5.0 7.0 0.00 0.00 0.00 14 1014.1
20260508050035 49 253 5.0 6.0 0.00 0.00 0.00 16 1014.2
20260508045535 49 250 5.0 7.0 0.00 0.00 0.00 18 1014.2
20260508045035 49 242 5.0 7.0 0.00 0.00 0.00 20 1014.0
20260508044535 49 259 5.0 7.0 0.00 0.00 0.00 20 1014.1
20260508044036 49 245 5.0 7.0 0.00 0.00 0.00 19 1014.7
20260508043535 50 254 6.0 6.0 0.00 0.00 0.00 18 1014.1
20260508043035 49 246 5.0 6.0 0.00 0.00 0.00 17 1014.1
20260508042535 49 257 4.0 8.0 0.00 0.00 0.00 22 1014.3
20260508042036 50 243 5.0 8.0 0.00 0.00 0.00 27 1014.0
20260508041535 49 259 5.0 8.0 0.00 0.00 0.00 30 1014.0
20260508041035 49 246 5.0 8.0 0.00 0.00 0.00 28 1014.1
20260508040535 50 253 4.0 8.0 0.00 0.00 0.00 29 1014.2
20260508040035 50 263 5.0 8.0 0.00 0.00 0.00 31 1013.8
20260508035535 50 257 5.0 7.0 0.00 0.00 0.00 28 1014.1
20260508035035 50 263 6.0 7.0 0.00 0.00 0.00 28 1013.8
20260508034535 50 245 5.0 8.0 0.00 0.00 0.00 28 1013.7
20260508034036 50 252 5.0 8.0 0.00 0.00 0.00 29 1014.0
20260508033535 51 246 5.0 8.0 0.00 0.00 0.00 30 1013.7
20260508033035 51 254 6.0 8.0 0.00 0.00 0.00 29 1013.8
20260508032535 51 254 6.0 8.0 0.00 0.00 0.00 29 1014.0
20260508032035 51 242 4.0 8.0 0.00 0.00 0.00 28 1013.8
20260508031535 51 246 3.0 6.0 0.00 0.00 0.00 28 1013.6
20260508031036 52 252 2.0 6.0 0.00 0.00 0.00 29 1013.5
20260508030535 52 257 2.0 6.0 0.00 0.00 0.00 30 1013.5
20260508030035 52 239 3.0 6.0 0.00 0.00 0.00 29 1013.5
20260508025535 52 278 1.0 5.0 0.00 0.00 0.00 27 1014.1
20260508025035 52 266 2.0 5.0 0.00 0.00 0.00 24 1013.8
20260508024536 52 259 2.0 5.0 0.00 0.00 0.00 27 1013.7
20260508024035 53 270 2.0 8.0 0.00 0.00 0.00 30 1014.0
20260508023535 53 240 4.0 8.0 0.00 0.00 0.00 31 1014.0
20260508023035 53 242 2.0 8.0 0.00 0.00 0.00 34 1013.8
20260508022536 54 257 4.0 7.0 0.00 0.00 0.00 39 1014.1
20260508022035 54 257 4.0 6.0 0.00 0.00 0.00 37 1013.7
20260508021535 54 249 3.0 6.0 0.00 0.00 0.00 36 1013.8
20260508021036 54 242 1.0 6.0 0.00 0.00 0.00 35 1014.3
20260508020535 55 256 3.0 7.0 0.00 0.00 0.00 34 1014.0
20260508020035 55 278 4.0 7.0 0.00 0.00 0.00 33 1014.3
20260508015535 55 253 4.0 7.0 0.00 0.00 0.00 34 1014.0
20260508015035 56 254 2.0 6.0 0.00 0.00 0.00 35 1014.1
20260508014536 56 242 4.0 6.0 0.00 0.00 0.00 38 1014.3
20260508014035 57 240 3.0 6.0 0.00 0.00 0.00 37 1014.2
20260508013535 57 260 4.0 6.0 0.00 0.00 0.00 35 1014.2
20260508013036 57 268 2.0 5.0 0.00 0.00 0.00 36 1014.2
20260508012535 57 256 0.0 4.0 0.00 0.00 0.00 41 1014.6
20260508012035 57 190 1.0 4.0 0.00 0.00 0.00 38 1014.3
20260508011535 57 212 1.0 3.0 0.00 0.00 0.00 37 1014.6
20260508011035 57 231 0.0 2.0 0.00 0.00 0.00 43 1014.4
20260508010535 57 236 0.0 3.0 0.00 0.00 0.00 45 1014.5
20260508010037 57 0 0.0 3.0 0.00 0.00 0.00 47 1014.5
20260508005535 57 264 0.0 3.0 0.00 0.00 0.00 48 1014.7
20260508005035 57 270 1.0 6.0 0.00 0.00 0.00 49 1015.1
20260508004535 58 266 0.0 6.0 0.00 0.00 0.00 49 1014.7
20260508004035 57 242 0.0 6.0 0.00 0.00 0.00 51 1014.8
20260508003535 57 282 1.0 3.0 0.00 0.00 0.00 50 1014.7
20260508003035 57 263 1.0 2.0 0.00 0.00 0.00 49 1014.6
20260508002535 57 0 0.0 0.0 0.00 0.00 0.00 49 1014.8
20260508002035 57 0 0.0 0.0 0.00 0.00 0.00 50 1014.6
20260508001535 57 0 0.0 0.0 0.00 0.00 0.00 52 1014.6
20260508001035 56 0 0.0 0.0 0.00 0.00 0.00 52 1014.8
20260508000535 56 0 0.0 0.0 0.00 0.00 0.00 51 1014.8
20260508000035 56 0 0.0 0.0 0.00 0.00 0.00 52 1014.6
20260507235537 56 0 0.0 0.0 0.00 0.00 0.00 52 1015.1
20260507235035 56 0 0.0 0.0 0.00 0.00 0.00 51 1014.8
20260507234535 57 0 0.0 0.0 0.00 0.00 0.00 51 1014.8
20260507234035 57 0 0.0 0.0 0.00 0.00 0.00 50 1015.3
20260507233535 57 21 0.0 0.0 0.00 0.00 0.00 51 1014.8
20260507233035 57 0 0.0 0.0 0.00 0.00 0.00 51 1015.1
20260507232535 57 0 0.0 0.0 0.00 0.00 0.00 51 1015.6
20260507232035 57 0 0.0 0.0 0.00 0.00 0.00 50 1015.0
20260507231535 57 0 0.0 0.0 0.00 0.00 0.00 49 1015.2
20260507231035 57 0 0.0 0.0 0.00 0.00 0.00 49 1015.1
20260507230535 57 0 0.0 0.0 0.00 0.00 0.00 46 1015.2
20260507230035 57 0 0.0 0.0 0.00 0.00 0.00 50 1015.2
20260507225625 57 0 0.0 0.0 0.00 0.00 0.00 50 1015.5
20260507225535 57 0 0.0 0.0 0.00 0.00 0.00 50 1015.5
20260507225035 57 0 0.0 0.0 0.00 0.00 0.00 46 1015.3
20260507224535 57 21 0.0 0.0 0.00 0.00 0.00 51 1015.4
20260507224036 57 0 0.0 0.0 0.00 0.00 0.00 50 1015.5
20260507223535 57 21 0.0 0.0 0.00 0.00 0.00 50 1015.4
20260507223035 57 249 0.0 0.0 0.00 0.00 0.00 50 1015.6
20260507222535 57 0 0.0 0.0 0.00 0.00 0.00 51 1015.5
20260507222035 57 0 0.0 0.0 0.00 0.00 0.00 49 1015.4
20260507221535 58 0 0.0 0.0 0.00 0.00 0.00 50 1015.5
20260507221035 58 0 0.0 1.0 0.00 0.00 0.00 49 1015.6
20260507220535 58 249 0.0 1.0 0.00 0.00 0.00 50 1015.6
20260507220035 58 319 0.0 1.0 0.00 0.00 0.00 49 1015.7
20260507215535 58 232 0.0 3.0 0.00 0.00 0.00 50 1016.3
20260507215035 58 0 0.0 3.0 0.00 0.00 0.00 50 1015.9
20260507214535 58 260 0.0 3.0 0.00 0.00 0.00 50 1015.7
20260507214035 58 0 0.0 0.0 0.00 0.00 0.00 45 1016.1
20260507213535 57 0 0.0 0.0 0.00 0.00 0.00 51 1015.7
20260507213035 58 0 0.0 1.0 0.00 0.00 0.00 49 1015.7
20260507212535 57 0 0.0 1.0 0.00 0.00 0.00 50 1016.0
20260507212035 57 22 0.0 1.0 0.00 0.00 0.00 49 1016.2
20260507211535 57 0 0.0 0.0 0.00 0.00 0.00 48 1015.9
20260507211034 57 0 0.0 0.0 0.00 0.00 0.00 50 1016.2
20260507210534 57 0 0.0 1.0 0.00 0.00 0.00 50 1015.7
20260507210034 57 0 0.0 1.0 0.00 0.00 0.00 49 1015.7
20260507205534 57 357 0.0 1.0 0.00 0.00 0.00 51 1016.1
20260507205034 57 0 0.0 0.0 0.00 0.00 0.00 50 1015.7
20260507204534 57 0 0.0 0.0 0.00 0.00 0.00 50 1015.9
20260507204034 57 0 0.0 0.0 0.00 0.00 0.00 49 1016.0
20260507203534 57 0 0.0 3.0 0.00 0.00 0.00 50 1015.9
20260507203035 57 0 0.0 3.0 0.00 0.00 0.00 50 1015.9
20260507202534 57 33 0.0 3.0 0.00 0.00 0.00 51 1016.1
20260507202034 57 12 0.0 1.0 0.00 0.00 0.00 49 1016.0
20260507201534 57 0 0.0 2.0 0.00 0.00 0.00 48 1016.0
20260507201035 57 351 0.0 2.0 0.00 0.00 0.00 50 1016.0
20260507200534 57 54 0.0 2.0 0.00 0.00 0.00 52 1016.0
20260507200034 56 120 0.0 4.0 0.00 0.00 0.00 56 1016.0
20260507195534 56 0 1.0 4.0 0.00 0.00 0.00 55 1016.1
20260507195034 56 357 0.0 4.0 0.00 0.00 0.00 55 1016.0
20260507194534 55 242 0.0 2.0 0.00 0.00 0.00 56 1016.4
20260507193534 55 0 0.0 0.0 0.00 0.00 0.00 56 1016.5
20260507193034 55 0 0.0 0.0 0.00 0.00 0.00 56 1016.2
20260507192534 55 0 0.0 0.0 0.00 0.00 0.00 57 1016.5
20260507192034 55 0 0.0 0.0 0.00 0.00 0.00 58 1016.1
20260507191534 54 0 0.0 0.0 0.00 0.00 0.00 57 1016.2
20260507191034 54 135 0.0 0.0 0.00 0.00 0.00 58 1016.1
20260507190534 54 263 0.0 4.0 0.00 0.00 0.00 59 1016.1
20260507190034 54 263 0.0 4.0 0.00 0.00 0.00 57 1016.2
20260507185534 54 109 0.0 4.0 0.00 0.00 0.00 56 1016.2
20260507185034 53 0 0.0 3.0 0.00 0.00 0.00 58 1016.2
20260507184534 53 144 0.0 3.0 0.00 0.00 0.00 59 1016.0
20260507184034 53 242 0.0 3.0 0.00 0.00 0.00 59 1016.5
20260507183534 52 16 0.0 1.0 0.00 0.00 0.00 61 1016.2
20260507183034 52 0 0.0 3.0 0.00 0.00 0.00 62 1016.1
20260507182534 52 0 0.0 3.0 0.00 0.00 0.00 63 1016.2
20260507182034 52 29 0.0 3.0 0.00 0.00 0.00 64 1016.1
20260507181534 52 254 0.0 2.0 0.00 0.00 0.00 63 1016.1
20260507181034 51 0 0.0 2.0 0.00 0.00 0.00 64 1016.3
20260507180534 51 253 0.0 2.0 0.00 0.00 0.00 64 1016.2
20260507180034 51 26 0.0 0.0 0.00 0.00 0.00 64 1016.1
20260507175534 51 0 0.0 0.0 0.00 0.00 0.00 66 1016.2
20260507175034 51 18 0.0 0.0 0.00 0.00 0.00 67 1016.3
20260507174534 50 0 0.0 0.0 0.00 0.00 0.00 67 1016.1
20260507174034 50 0 0.0 0.0 0.00 0.00 0.00 67 1016.1
20260507173534 50 40 0.0 1.0 0.00 0.00 0.00 68 1016.1
20260507173034 50 33 0.0 1.0 0.00 0.00 0.00 68 1016.1
20260507172535 50 57 0.0 1.0 0.00 0.00 0.00 68 1016.3
20260507172034 49 0 0.0 0.0 0.00 0.00 0.00 68 1016.1
20260507171534 49 0 0.0 1.0 0.00 0.00 0.00 69 1016.1
20260507171034 49 0 0.0 1.0 0.00 0.00 0.00 70 1016.3
20260507170534 49 23 0.0 1.0 0.00 0.00 0.00 70 1016.1
20260507170034 48 123 0.0 0.0 0.00 0.00 0.00 69 1016.3
20260507165534 48 228 0.0 3.0 0.00 0.00 0.00 68 1016.0
20260507165034 48 0 0.0 3.0 0.00 0.00 0.00 70 1016.1
20260507164535 48 250 0.0 3.0 0.00 0.00 0.00 70 1016.1
20260507164034 48 151 0.0 3.0 0.00 0.00 0.00 70 1016.0
20260507163539 48 0 0.0 3.0 0.00 0.00 0.00 71 1016.0
20260507163034 48 254 0.0 3.0 0.00 0.00 0.00 72 1016.0
20260507162534 48 0 1.0 1.0 0.00 0.00 0.00 73 1016.0
20260507162034 48 0 0.0 0.0 0.00 0.00 0.00 70 1016.1
20260507161534 47 0 0.0 0.0 0.00 0.00 0.00 73 1016.0
20260507161034 47 0 0.0 0.0 0.00 0.00 0.00 73 1015.9
20260507160534 47 0 0.0 0.0 0.00 0.00 0.00 74 1016.1
20260507160034 47 0 0.0 0.0 0.00 0.00 0.00 74 1015.9
20260507155535 47 0 0.0 0.0 0.00 0.00 0.00 75 1016.0
20260507155034 47 0 0.0 0.0 0.00 0.00 0.00 76 1016.0
20260507154534 47 0 0.0 0.0 0.00 0.00 0.00 76 1016.1
20260507154034 46 0 0.0 0.0 0.00 0.00 0.00 76 1016.0
20260507153535 46 0 0.0 0.0 0.00 0.00 0.00 77 1016.3
20260507153034 46 0 0.0 0.0 0.00 0.00 0.00 76 1015.9
20260507152534 46 0 0.0 0.0 0.00 0.00 0.00 77 1016.0
20260507152034 46 0 0.0 0.0 0.00 0.00 0.00 78 1015.9
20260507151534 45 0 0.0 0.0 0.00 0.00 0.00 78 1015.7
20260507151034 45 0 0.0 0.0 0.00 0.00 0.00 78 1016.0
20260507150535 45 0 0.0 0.0 0.00 0.00 0.00 78 1015.9
20260507150035 45 0 0.0 0.0 0.00 0.00 0.00 78 1015.9
20260507145534 45 0 0.0 0.0 0.00 0.00 0.00 78 1016.0
20260507145034 45 0 0.0 0.0 0.00 0.00 0.00 78 1015.7
20260507144534 45 0 0.0 0.0 0.00 0.00 0.00 78 1015.7
20260507144034 45 0 0.0 0.0 0.00 0.00 0.00 78 1015.9
20260507143534 45 0 0.0 0.0 0.00 0.00 0.00 78 1015.9
20260507143034 44 0 0.0 0.0 0.00 0.00 0.00 79 1015.6
20260507142535 44 0 0.0 0.0 0.00 0.00 0.00 77 1016.0
20260507142034 44 0 0.0 0.0 0.00 0.00 0.00 76 1015.7
20260507141534 44 0 0.0 0.0 0.00 0.00 0.00 79 1015.6
20260507141034 44 0 0.0 0.0 0.00 0.00 0.00 79 1015.7
20260507140534 44 0 0.0 0.0 0.00 0.00 0.00 79 1015.6
20260507140034 44 0 0.0 0.0 0.00 0.00 0.00 79 1015.6
20260507135534 43 0 0.0 0.0 0.00 0.00 0.00 79 1016.2
20260507135034 43 0 0.0 0.0 0.00 0.00 0.00 79 1015.7
20260507134534 43 0 0.0 0.0 0.00 0.00 0.00 79 1015.7
20260507134034 43 0 0.0 0.0 0.00 0.00 0.00 79 1015.6
20260507133534 43 0 0.0 0.0 0.00 0.00 0.00 79 1015.4
20260507133034 43 0 0.0 0.0 0.00 0.00 0.00 79 1015.5
20260507132534 43 0 0.0 0.0 0.00 0.00 0.00 79 1016.0
20260507132034 43 0 0.0 0.0 0.00 0.00 0.00 79 1015.9
20260507131534 43 0 0.0 0.0 0.00 0.00 0.00 78 1015.5
20260507131034 43 0 0.0 0.0 0.00 0.00 0.00 79 1015.9
20260507130535 43 0 0.0 0.0 0.00 0.00 0.00 79 1015.5
20260507130034 43 0 0.0 0.0 0.00 0.00 0.00 79 1015.5
20260507125534 43 0 0.0 0.0 0.00 0.00 0.00 78 1015.9
20260507125034 44 0 0.0 0.0 0.00 0.00 0.00 79 1015.7
20260507124534 44 0 0.0 0.0 0.00 0.00 0.00 79 1015.6
20260507124033 44 0 0.0 0.0 0.00 0.00 0.00 79 1016.1
20260507123533 44 0 0.0 0.0 0.00 0.00 0.00 79 1015.6
20260507123033 44 0 0.0 0.0 0.00 0.00 0.00 79 1015.6
20260507122533 44 0 0.0 0.0 0.00 0.00 0.00 79 1015.9
20260507122033 45 0 0.0 0.0 0.00 0.00 0.00 79 1015.7
20260507121533 45 0 0.0 0.0 0.00 0.00 0.00 80 1015.7
20260507121033 45 0 0.0 0.0 0.00 0.00 0.00 80 1015.7
20260507120533 45 0 0.0 0.0 0.00 0.00 0.00 80 1015.7
20260507120034 45 0 0.0 0.0 0.00 0.00 0.00 80 1015.9
20260507115534 45 0 0.0 0.0 0.00 0.00 0.00 80 1016.0
20260507115033 45 0 0.0 0.0 0.00 0.00 0.00 79 1016.0
20260507114533 45 0 0.0 0.0 0.00 0.00 0.00 80 1016.0
20260507114034 45 0 0.0 0.0 0.00 0.00 0.00 80 1016.0
20260507113533 45 0 0.0 0.0 0.00 0.00 0.00 80 1016.0
20260507113033 45 0 0.0 0.0 0.00 0.00 0.00 80 1016.0
20260507112536 45 0 0.0 0.0 0.00 0.00 0.00 80 1016.1
20260507112033 45 0 0.0 0.0 0.00 0.00 0.00 80 1016.1
20260507111533 45 0 0.0 0.0 0.00 0.00 0.00 80 1016.1
20260507111033 45 0 0.0 0.0 0.00 0.00 0.00 81 1016.3
20260507110533 45 0 0.0 0.0 0.00 0.00 0.00 80 1016.1
20260507110033 45 0 0.0 0.0 0.00 0.00 0.00 81 1016.2
20260507105533 45 0 0.0 0.0 0.00 0.00 0.00 80 1016.2
20260507105033 45 0 0.0 0.0 0.00 0.00 0.00 80 1016.2
20260507104533 45 0 0.0 0.0 0.00 0.00 0.00 80 1016.2
20260507104033 44 0 0.0 0.0 0.00 0.00 0.00 80 1016.2
20260507103533 44 0 0.0 0.0 0.00 0.00 0.00 79 1016.3
20260507103033 44 0 0.0 0.0 0.00 0.00 0.00 79 1016.3
20260507102533 44 0 0.0 0.0 0.00 0.00 0.00 80 1016.4
20260507102034 43 0 0.0 0.0 0.00 0.00 0.00 80 1016.4
20260507101533 43 0 0.0 0.0 0.00 0.00 0.00 79 1016.4
20260507101035 43 0 0.0 0.0 0.00 0.00 0.00 78 1016.5
20260507100533 43 0 0.0 0.0 0.00 0.00 0.00 79 1016.5
20260507100033 43 0 0.0 0.0 0.00 0.00 0.00 78 1016.6
20260507095534 43 0 0.0 0.0 0.00 0.00 0.00 79 1016.6
20260507095033 43 0 0.0 0.0 0.00 0.00 0.00 79 1016.6
20260507094033 43 0 0.0 0.0 0.00 0.00 0.00 79 1016.6
20260507093533 43 0 0.0 0.0 0.00 0.00 0.00 79 1016.7
20260507093033 42 0 0.0 0.0 0.00 0.00 0.00 79 1016.9
20260507092533 43 0 0.0 0.0 0.00 0.00 0.00 79 1016.9
20260507092033 43 0 0.0 0.0 0.00 0.00 0.00 79 1017.0
20260507091533 43 0 0.0 0.0 0.00 0.00 0.00 79 1017.0
20260507091034 43 0 0.0 0.0 0.00 0.00 0.00 78 1016.9
20260507090533 43 0 0.0 0.0 0.00 0.00 0.00 78 1016.9
20260507090034 43 0 0.0 0.0 0.00 0.00 0.00 79 1017.1
20260507085533 43 0 0.0 0.0 0.00 0.00 0.00 79 1017.1